FW7220 Weather Reports


time (UTC)temp
F
wind
direction
speed
knots
gust
knots
rain 1hr
in
rain 24hr
in
rain mn
in
humidity
%
barometer
mb
20260505153110 74 257 3.5 8.7 0.00 0.00 0.00 82 1008.2
20260505152544 74 259 2.6 9.6 0.00 0.00 0.00 82 1008.2
20260505152048 74 271 4.3 9.6 0.00 0.00 0.00 82 1008.2
20260505151556 73 260 2.6 8.7 0.00 0.00 0.00 82 1008.2
20260505151044 73 265 3.5 8.7 0.00 0.00 0.00 82 1008.2
20260505150546 73 290 2.6 9.6 0.00 0.00 0.00 82 1008.1
20260505150113 73 254 4.3 9.6 0.00 0.00 0.00 82 1008.2
20260505140544 72 287 2.6 7.8 0.00 0.00 0.00 82 1008.3
20260505140105 72 295 4.3 7.8 0.00 0.00 0.00 82 1008.3
20260505124608 71 267 4.3 8.7 0.00 0.00 0.00 83 1007.8
20260505124049 71 236 1.7 7.0 0.00 0.00 0.00 83 1007.7
20260505123542 71 278 0.9 7.0 0.00 0.00 0.00 83 1007.8
20260505123110 71 0 1.7 7.0 0.00 0.00 0.00 83 1007.7
20260505122544 71 266 1.7 7.8 0.00 0.00 0.00 84 1007.6
20260505122043 71 0 3.5 9.6 0.00 0.00 0.00 84 1007.7
20260505121552 71 0 4.3 9.6 0.00 0.00 0.00 84 1007.6
20260505121049 71 284 3.5 8.7 0.00 0.00 0.00 84 1007.5
20260505120546 71 312 1.7 14.8 0.00 0.00 0.00 83 1007.3
20260505120053 71 257 2.6 14.8 0.00 0.00 0.00 83 1007.2
20260505115543 71 276 3.5 7.8 0.00 0.00 0.00 83 1007.3
20260505115044 71 266 0.9 8.7 0.00 0.00 0.00 83 1007.4
20260505114601 71 275 3.5 11.3 0.00 0.00 0.00 83 1007.3
20260505114044 71 265 3.5 11.3 0.00 0.00 0.00 83 1007.2
20260505113552 71 0 4.3 11.3 0.00 0.00 0.00 83 1007.2
20260505113055 71 269 3.5 9.6 0.00 0.00 0.00 83 1007.3
20260505112548 71 276 5.2 9.6 0.00 0.00 0.00 83 1007.1
20260505112048 71 229 4.3 9.6 0.00 0.00 0.00 83 1007.1
20260505111559 71 271 4.3 10.4 0.00 0.00 0.00 83 1007.0
20260505111048 71 224 4.3 10.4 0.00 0.00 0.00 83 1007.2
20260505110547 71 282 5.2 12.2 0.00 0.00 0.00 83 1007.2
20260505102048 70 323 1.7 10.4 0.00 0.00 0.00 83 1007.4
20260505101559 70 285 3.5 10.4 0.00 0.00 0.00 83 1007.1
20260505101048 70 263 3.5 8.7 0.00 0.00 0.00 83 1007.1
20260505100548 70 242 3.5 8.7 0.00 0.00 0.00 83 1007.1
20260505100104 70 263 2.6 11.3 0.00 0.00 0.00 83 1007.2
20260505095545 70 261 3.5 11.3 0.00 0.00 0.00 83 1007.2
20260505095048 70 272 5.2 11.3 0.00 0.00 0.00 83 1007.2
20260505094552 70 210 3.5 10.4 0.00 0.00 0.00 83 1007.2
20260505094044 70 249 0.9 10.4 0.00 0.00 0.00 83 1007.2
20260505093546 70 271 3.5 10.4 0.00 0.00 0.00 83 1007.2
20260505093056 70 278 3.5 8.7 0.00 0.00 0.00 83 1007.1
20260505092552 70 258 3.5 8.7 0.00 0.00 0.00 83 1007.2
20260505092047 70 262 2.6 7.8 0.00 0.00 0.00 83 1007.2
20260505091553 70 276 2.6 9.6 0.00 0.00 0.00 82 1007.2
20260505091048 70 261 4.3 9.6 0.00 0.00 0.00 83 1007.3
20260505090547 70 283 1.7 9.6 0.00 0.00 0.00 83 1007.4
20260505090106 70 265 2.6 11.3 0.00 0.00 0.00 83 1007.5
20260505085548 70 0 5.2 12.2 0.00 0.00 0.00 83 1007.5
20260505085051 70 289 4.3 12.2 0.00 0.00 0.00 83 1007.5
20260505084550 69 226 3.5 8.7 0.00 0.00 0.00 83 1007.6
20260505084047 69 269 3.5 8.7 0.00 0.00 0.00 82 1007.8
20260505083548 69 262 4.3 8.7 0.00 0.00 0.00 82 1007.9
20260505083107 69 262 3.5 9.6 0.00 0.00 0.00 82 1008.0
20260505082548 69 0 3.5 9.6 0.00 0.00 0.00 82 1008.0
20260505082047 69 266 3.5 8.7 0.00 0.00 0.00 82 1007.9
20260505081556 70 266 3.5 8.7 0.00 0.00 0.00 82 1007.9
20260505081047 70 259 0.9 7.8 0.00 0.00 0.00 82 1008.1
20260505080546 70 0 3.5 7.8 0.00 0.00 0.00 82 1008.1
20260505080056 70 264 3.5 7.8 0.00 0.00 0.00 82 1008.1
20260505075547 70 266 2.6 9.6 0.00 0.00 0.00 82 1008.1
20260505075047 70 279 2.6 9.6 0.00 0.00 0.00 82 1008.2
20260505074549 70 255 2.6 10.4 0.00 0.00 0.00 81 1008.3
20260505074053 70 256 2.6 10.4 0.00 0.00 0.00 81 1008.5
20260505073551 70 290 0.9 7.8 0.00 0.00 0.00 81 1008.6
20260505073058 70 252 2.6 8.7 0.00 0.00 0.00 81 1008.5
20260505072548 70 0 2.6 9.6 0.00 0.00 0.00 81 1008.6
20260505072048 70 279 2.6 9.6 0.00 0.00 0.00 81 1008.5
20260505071557 70 262 2.6 7.8 0.00 0.00 0.00 81 1008.8
20260505071045 70 284 2.6 6.1 0.00 0.00 0.00 81 1008.8
20260505070549 70 295 1.7 7.8 0.00 0.00 0.00 81 1008.8
20260505070057 70 263 3.5 7.8 0.00 0.00 0.00 81 1008.8
20260505065547 70 255 1.7 7.0 0.00 0.00 0.00 80 1008.8
20260505065046 70 278 2.6 7.8 0.00 0.00 0.00 80 1009.0
20260505064549 70 280 1.7 7.8 0.00 0.00 0.00 80 1009.0
20260505064047 70 243 1.7 10.4 0.00 0.00 0.00 80 1008.9
20260505063548 70 260 2.6 10.4 0.00 0.00 0.00 80 1008.9
20260505063054 71 282 3.5 10.4 0.00 0.00 0.00 80 1009.0
20260505062547 71 264 1.7 7.8 0.00 0.00 0.00 80 1008.9
20260505062046 71 281 2.6 9.6 0.00 0.00 0.00 79 1009.0
20260505061551 71 246 3.5 9.6 0.00 0.00 0.00 79 1009.0
20260505061048 71 269 4.3 9.6 0.00 0.00 0.00 79 1009.1
20260505060550 71 283 2.6 8.7 0.00 0.00 0.00 79 1009.1
20260505060059 71 258 3.5 8.7 0.00 0.00 0.00 79 1009.2
20260505055547 71 273 2.6 8.7 0.00 0.00 0.00 78 1009.1
20260505055048 71 276 4.3 8.7 0.00 0.00 0.00 78 1009.0
20260505054556 71 255 3.5 8.7 0.00 0.00 0.00 78 1009.1
20260505054047 71 0 3.5 7.8 0.00 0.00 0.00 78 1009.1
20260505053548 71 264 1.7 8.7 0.00 0.00 0.00 78 1009.0
20260505053053 72 273 1.7 9.6 0.00 0.00 0.00 78 1009.0
20260505052544 72 0 3.5 9.6 0.00 0.00 0.00 78 1009.0
20260505052045 72 258 2.6 9.6 0.00 0.00 0.00 78 1008.8
20260505051550 72 0 3.5 8.7 0.00 0.00 0.00 78 1008.8
20260505051046 72 258 2.6 9.6 0.00 0.00 0.00 77 1008.8
20260505050544 72 224 2.6 9.6 0.00 0.00 0.00 77 1009.0
20260505050126 72 265 3.5 8.7 0.00 0.00 0.00 77 1008.9
20260505041603 72 266 1.7 7.8 0.00 0.00 0.00 76 1008.9
20260505041046 72 233 1.7 7.8 0.00 0.00 0.00 76 1008.9
20260505040549 72 230 2.6 7.8 0.00 0.00 0.00 76 1008.9
20260505040058 72 0 2.6 7.8 0.00 0.00 0.00 76 1008.9
20260505035548 72 246 1.7 7.8 0.00 0.00 0.00 76 1009.1
20260505035044 72 257 2.6 7.8 0.00 0.00 0.00 75 1009.1
20260505034555 72 260 1.7 6.1 0.00 0.00 0.00 75 1009.1
20260505034047 72 265 1.7 6.1 0.00 0.00 0.00 75 1009.2
20260505033549 72 0 1.7 6.1 0.00 0.00 0.00 75 1009.2
20260505033053 72 217 1.7 6.1 0.00 0.00 0.00 75 1009.1
20260505032548 72 238 1.7 5.2 0.00 0.00 0.00 75 1009.1
20260505032050 72 233 1.7 6.1 0.00 0.00 0.00 74 1009.1
20260505031550 72 267 1.7 6.1 0.00 0.00 0.00 74 1009.0
20260505031047 72 243 0.9 6.1 0.00 0.00 0.00 74 1009.1
20260505030544 72 0 0.9 4.3 0.00 0.00 0.00 74 1009.2
20260505030051 73 237 0.0 5.2 0.00 0.00 0.00 74 1009.0
20260505025544 73 245 0.9 5.2 0.00 0.00 0.00 74 1009.0
20260505025045 73 217 0.0 5.2 0.00 0.00 0.00 73 1008.9
20260505024550 73 226 1.7 5.2 0.00 0.00 0.00 73 1008.9
20260505024046 73 0 0.0 4.3 0.00 0.00 0.00 73 1008.8
20260505023548 73 236 0.0 6.1 0.00 0.00 0.00 73 1008.7
20260505023056 73 0 0.9 6.1 0.00 0.00 0.00 72 1008.7
20260505022547 73 0 0.0 2.6 0.00 0.00 0.00 72 1008.8
20260505022048 73 0 0.0 3.5 0.00 0.00 0.00 72 1008.7
20260505021555 73 0 0.0 3.5 0.00 0.00 0.00 72 1008.9
20260505021046 73 0 0.0 3.5 0.00 0.00 0.00 72 1008.8
20260505020544 74 0 0.0 2.6 0.00 0.00 0.00 71 1008.9
20260505020055 74 0 0.0 2.6 0.00 0.00 0.00 71 1008.8
20260505015545 74 0 0.0 4.3 0.00 0.00 0.00 71 1008.7
20260505015045 74 234 0.0 4.3 0.00 0.00 0.00 70 1008.7
20260505014605 74 0 0.9 4.3 0.00 0.00 0.00 70 1008.8
20260505014046 75 0 0.0 3.5 0.00 0.00 0.00 70 1008.8
20260505013547 75 0 0.0 3.5 0.00 0.00 0.00 69 1008.7
20260505013053 75 0 0.0 5.2 0.00 0.00 0.00 69 1008.8
20260505012548 75 0 0.0 5.2 0.00 0.00 0.00 68 1008.8
20260505012047 75 214 0.0 5.2 0.00 0.00 0.00 68 1008.8
20260505011605 76 269 1.7 6.1 0.00 0.00 0.00 68 1008.7
20260505011047 76 272 0.9 6.1 0.00 0.00 0.00 68 1008.6
20260505010548 76 247 0.9 6.1 0.00 0.00 0.00 67 1008.6
20260505010059 76 274 1.7 7.0 0.00 0.00 0.00 66 1008.7
20260505005548 76 198 0.9 7.0 0.00 0.00 0.00 66 1008.5
20260505005046 77 258 2.6 9.6 0.00 0.00 0.00 66 1008.6
20260505004559 77 0 0.9 9.6 0.00 0.00 0.00 65 1008.7
20260505004046 77 0 3.5 9.6 0.00 0.00 0.00 65 1008.6
20260505003547 77 240 2.6 9.6 0.00 0.00 0.00 65 1008.5
20260505003051 78 247 4.3 9.6 0.00 0.00 0.00 64 1008.6
20260505002551 78 265 2.6 8.7 0.00 0.00 0.00 64 1008.7
20260505002044 78 260 1.7 9.6 0.00 0.00 0.00 64 1008.7
20260505001604 78 248 2.6 9.6 0.00 0.00 0.00 64 1008.8
20260505001046 78 255 1.7 6.1 0.00 0.00 0.00 64 1008.8
20260505000546 78 0 1.7 7.0 0.00 0.00 0.00 64 1008.9
20260505000126 78 226 2.6 7.0 0.00 0.00 0.00 63 1008.9
20260504235547 79 0 1.7 9.6 0.00 0.00 0.00 63 1009.0
20260504235047 79 258 1.7 9.6 0.00 0.00 0.00 62 1009.1
20260504234611 79 260 3.5 9.6 0.00 0.00 0.00 61 1009.1
20260504234046 79 236 1.7 9.6 0.00 0.00 0.00 62 1009.1
20260504233551 79 233 2.6 9.6 0.00 0.00 0.00 61 1009.2
20260504233050 79 257 2.6 10.4 0.00 0.00 0.00 61 1009.3
20260504232545 79 0 2.6 11.3 0.00 0.00 0.00 61 1009.3
20260504232046 80 0 4.3 11.3 0.00 0.00 0.00 60 1009.4
20260504231548 80 274 2.6 9.6 0.00 0.00 0.00 60 1009.5
20260504231046 80 260 1.7 9.6 0.00 0.00 0.00 61 1009.4
20260504230547 80 264 3.5 9.6 0.00 0.00 0.00 61 1009.4
20260504230048 80 210 2.6 11.3 0.00 0.00 0.00 60 1009.5
20260504225547 80 290 3.5 11.3 0.00 0.00 0.00 60 1009.4
20260504225050 80 264 4.3 9.6 0.00 0.00 0.00 59 1009.6
20260504224605 80 0 3.5 12.2 0.00 0.00 0.00 60 1009.6
20260504224047 80 288 3.5 12.2 0.00 0.00 0.00 60 1009.5
20260504223546 81 257 6.1 12.2 0.00 0.00 0.00 58 1009.7
20260504223053 81 273 2.6 13.0 0.00 0.00 0.00 59 1009.7
20260504222548 81 213 5.2 13.0 0.00 0.00 0.00 58 1009.7
20260504222048 81 262 5.2 13.9 0.00 0.00 0.00 58 1009.7
20260504221552 81 231 3.5 13.9 0.00 0.00 0.00 58 1009.5
20260504221047 81 265 5.2 13.9 0.00 0.00 0.00 58 1009.5
20260504220547 81 243 4.3 13.9 0.00 0.00 0.00 57 1009.5
20260504220053 81 266 6.1 13.9 0.00 0.00 0.00 56 1009.6
20260504215547 82 297 5.2 12.2 0.00 0.00 0.00 58 1009.7
20260504215044 81 268 2.6 12.2 0.00 0.00 0.00 57 1009.7
20260504214550 81 0 5.2 12.2 0.00 0.00 0.00 56 1009.9
20260504214046 82 274 4.3 11.3 0.00 0.00 0.00 56 1010.2
20260504213547 82 274 6.1 12.2 0.00 0.00 0.00 55 1010.3
20260504213125 82 261 5.2 12.2 0.00 0.00 0.00 56 1010.3
20260504212547 82 239 4.3 10.4 0.00 0.00 0.00 56 1010.2
20260504212050 83 255 2.6 10.4 0.00 0.00 0.00 55 1010.3
20260504211554 83 248 5.2 12.2 0.00 0.00 0.00 55 1010.6
20260504211047 82 262 4.3 12.2 0.00 0.00 0.00 55 1010.4
20260504210544 83 290 7.0 12.2 0.00 0.00 0.00 53 1010.6
20260504210055 83 265 5.2 12.2 0.00 0.00 0.00 53 1010.8
20260504205548 83 264 5.2 12.2 0.00 0.00 0.00 54 1011.0
20260504205048 83 261 2.6 13.0 0.00 0.00 0.00 54 1011.0
20260504204553 83 263 6.1 13.0 0.00 0.00 0.00 53 1011.0
20260504204047 83 290 4.3 9.6 0.00 0.00 0.00 52 1011.2
20260504203550 83 240 4.3 11.3 0.00 0.00 0.00 53 1011.3
20260504203117 83 266 4.3 11.3 0.00 0.00 0.00 52 1011.3
20260504202547 83 279 4.3 11.3 0.00 0.00 0.00 52 1011.5
20260504202047 83 261 2.6 9.6 0.00 0.00 0.00 53 1011.4
20260504201552 83 276 5.2 9.6 0.00 0.00 0.00 52 1011.6
20260504201047 83 316 3.5 10.4 0.00 0.00 0.00 52 1011.5
20260504200547 83 240 4.3 11.3 0.00 0.00 0.00 51 1011.6
20260504200057 82 272 3.5 13.0 0.00 0.00 0.00 53 1011.7
20260504195548 82 278 3.5 13.0 0.00 0.00 0.00 52 1011.8
20260504195046 82 243 5.2 13.0 0.00 0.00 0.00 50 1012.1
20260504194602 82 231 4.3 9.6 0.00 0.00 0.00 50 1012.2
20260504194046 82 273 3.5 10.4 0.00 0.00 0.00 52 1012.3
20260504193549 82 235 4.3 10.4 0.00 0.00 0.00 51 1012.4
20260504193100 82 212 4.3 11.3 0.00 0.00 0.00 52 1012.5
20260504192546 82 255 5.2 12.2 0.00 0.00 0.00 52 1012.6
20260504192047 82 264 5.2 12.2 0.00 0.00 0.00 53 1012.6
20260504191555 81 271 4.3 13.9 0.00 0.00 0.00 52 1012.7
20260504191047 81 325 6.1 13.9 0.00 0.00 0.00 52 1013.0
20260504190550 81 243 6.1 11.3 0.00 0.00 0.00 50 1013.0
20260504190109 81 300 5.2 11.3 0.00 0.00 0.00 53 1013.1
20260504185545 81 250 6.1 11.3 0.00 0.00 0.00 51 1013.1
20260504185047 81 281 5.2 11.3 0.00 0.00 0.00 51 1013.1
20260504184600 81 269 3.5 12.2 0.00 0.00 0.00 52 1013.0
20260504184047 81 259 5.2 12.2 0.00 0.00 0.00 51 1013.1
20260504183549 81 264 4.3 12.2 0.00 0.00 0.00 50 1013.1
20260504183052 81 257 5.2 12.2 0.00 0.00 0.00 50 1013.1
20260504182546 81 261 4.3 10.4 0.00 0.00 0.00 51 1013.2
20260504182044 80 261 5.2 13.9 0.00 0.00 0.00 50 1013.2
20260504181555 80 262 6.1 13.9 0.00 0.00 0.00 50 1013.6
20260504181044 81 276 4.3 10.4 0.00 0.00 0.00 51 1013.5
20260504180546 80 229 4.3 10.4 0.00 0.00 0.00 51 1013.6
20260504180052 80 276 3.5 11.3 0.00 0.00 0.00 53 1013.8
20260504175548 80 285 5.2 11.3 0.00 0.00 0.00 51 1014.1
20260504175047 80 205 4.3 8.7 0.00 0.00 0.00 49 1014.1
20260504174601 80 229 4.3 10.4 0.00 0.00 0.00 50 1014.0
20260504174048 80 287 5.2 10.4 0.00 0.00 0.00 51 1014.2
20260504173547 80 263 4.3 11.3 0.00 0.00 0.00 49 1014.2
20260504173056 79 278 4.3 11.3 0.00 0.00 0.00 51 1014.2
20260504172546 79 256 5.2 10.4 0.00 0.00 0.00 49 1014.3
20260504172048 79 257 4.3 10.4 0.00 0.00 0.00 50 1014.3
20260504171552 79 274 3.5 12.2 0.00 0.00 0.00 54 1014.4
20260504171048 79 259 5.2 12.2 0.00 0.00 0.00 53 1014.4
20260504170547 78 265 5.2 12.2 0.00 0.00 0.00 51 1014.5